FW4624 Weather Reports


time (UTC)temp
C
wind
direction
speed
KPH
gust
KPH
rain 1hr
cm
rain 24hr
cm
rain mn
cm
humidity
%
barometer
mb
20260504043538 8 219 0.0 1.6 0.00 0.00 0.00 88 1014.4
20260504043046 8 219 0.0 1.6 0.00 0.00 0.00 88 1014.3
20260504042540 8 219 0.0 1.6 0.00 0.00 0.00 89 1014.2
20260504042036 8 219 0.0 3.2 0.00 0.00 0.00 89 1014.2
20260504041538 8 219 0.0 3.2 0.00 0.00 0.00 88 1014.2
20260504041036 8 219 0.0 1.6 0.00 0.00 0.00 88 1014.2
20260504040538 8 219 0.0 3.2 0.00 0.00 0.00 87 1014.2
20260504040035 8 219 0.0 3.2 0.00 0.00 0.00 88 1014.1
20260504035535 8 219 0.0 0.0 0.00 0.00 0.00 88 1014.2
20260504035036 8 219 0.0 0.0 0.00 0.00 0.00 87 1014.1
20260504034535 8 219 0.0 0.0 0.00 0.00 0.00 87 1014.2
20260504034032 8 219 0.0 3.2 0.00 0.00 0.00 87 1014.3
20260504033536 8 219 0.0 3.2 0.00 0.00 0.00 86 1014.2
20260504033036 9 219 0.0 0.0 0.00 0.00 0.00 87 1014.3
20260504032530 9 219 0.0 0.0 0.00 0.00 0.00 86 1014.3
20260504032029 9 219 0.0 0.0 0.00 0.00 0.00 86 1014.2
20260504031529 9 219 0.0 1.6 0.00 0.00 0.00 85 1014.4
20260504031029 9 219 0.0 1.6 0.00 0.00 0.00 86 1014.3
20260504030527 9 219 0.0 1.6 0.00 0.00 0.00 85 1014.4
20260504030027 9 219 0.0 1.6 0.00 0.00 0.00 84 1014.3
20260504025527 10 219 0.0 1.6 0.00 0.00 0.00 85 1014.3
20260504025026 10 219 0.0 0.0 0.00 0.00 0.00 85 1014.1
20260504024526 10 219 0.0 1.6 0.00 0.00 0.00 84 1014.1
20260504024024 10 219 0.0 1.6 0.00 0.00 0.00 83 1014.1
20260504023523 10 219 0.0 1.6 0.00 0.00 0.00 83 1014.2
20260504023027 11 219 0.0 1.6 0.00 0.00 0.00 83 1014.1
20260504022523 11 219 0.0 1.6 0.00 0.00 0.00 82 1014.2
20260504022022 11 219 0.0 1.6 0.00 0.00 0.00 83 1014.3
20260504021521 11 219 0.0 0.0 0.00 0.00 0.00 81 1014.3
20260504021020 11 219 0.0 0.0 0.00 0.00 0.00 81 1014.3
20260504020520 11 219 0.0 0.0 0.00 0.00 0.00 79 1014.3
20260504020019 11 219 0.0 1.6 0.00 0.00 0.00 79 1014.4
20260504015519 11 219 0.0 4.8 0.00 0.00 0.00 79 1014.2
20260504015022 11 219 1.6 4.8 0.00 0.00 0.00 80 1014.3
20260504014524 11 219 1.6 3.2 0.00 0.00 0.00 79 1014.2
20260504014016 11 219 0.0 3.2 0.00 0.00 0.00 77 1014.1
20260504013515 12 219 0.0 3.2 0.00 0.00 0.00 77 1014.1
20260504013019 12 219 0.0 3.2 0.00 0.00 0.00 77 1014.1
20260504012514 12 219 0.0 3.2 0.00 0.00 0.00 77 1014.0
20260504012013 12 219 1.6 3.2 0.00 0.00 0.00 76 1014.0
20260504011519 12 219 0.0 3.2 0.00 0.00 0.00 76 1014.0
20260504011012 12 219 1.6 4.8 0.00 0.00 0.00 75 1014.1
20260504010510 13 219 1.6 4.8 0.00 0.00 0.00 74 1014.1
20260504010011 13 219 3.2 4.8 0.00 0.00 0.00 75 1014.1
20260504005510 13 219 3.2 4.8 0.00 0.00 0.00 75 1014.1
20260504005014 13 219 1.6 3.2 0.00 0.00 0.00 76 1014.1
20260504004510 12 219 1.6 3.2 0.00 0.00 0.00 76 1014.1
20260504004010 12 219 1.6 3.2 0.00 0.00 0.00 75 1014.2
20260504003508 13 219 1.6 3.2 0.00 0.00 0.00 75 1014.2
20260504003008 13 219 0.0 3.2 0.00 0.00 0.00 73 1014.3
20260504002507 13 219 0.0 1.6 0.00 0.00 0.00 73 1014.2
20260504002009 13 219 0.0 3.2 0.00 0.00 0.00 73 1014.2
20260504001506 13 219 0.0 3.2 0.00 0.00 0.00 73 1014.1
20260504001006 13 219 1.6 4.8 0.00 0.00 0.00 72 1014.1
20260504000504 13 219 1.6 3.2 0.00 0.00 0.00 71 1014.2
20260504000004 13 219 0.0 3.2 0.00 0.00 0.00 71 1014.2
20260503235502 13 219 0.0 3.2 0.00 0.00 0.00 70 1014.2
20260503235003 14 219 1.6 4.8 0.00 0.00 0.00 70 1014.2
20260503234503 14 219 1.6 6.4 0.00 0.00 0.00 69 1014.1
20260503234001 14 217 3.2 8.0 0.00 0.00 0.00 69 1014.1
20260503233501 14 221 3.2 8.0 0.00 0.00 0.00 69 1014.2
20260503233002 14 222 3.2 6.4 0.00 0.00 0.00 70 1014.1
20260503232559 14 222 3.2 6.4 0.00 0.00 0.00 69 1014.2
20260503232059 14 222 1.6 6.4 0.00 0.00 0.00 69 1014.2
20260503231558 14 222 3.2 4.8 0.00 0.00 0.00 68 1014.2
20260503231058 14 222 1.6 6.4 0.00 0.00 0.00 67 1014.2
20260503230557 15 222 3.2 6.4 0.00 0.00 0.00 67 1014.2
20260503230100 15 222 3.2 8.0 0.00 0.00 0.00 66 1014.2
20260503225555 15 221 4.8 9.7 0.00 0.00 0.00 66 1014.2
20260503225055 15 217 4.8 9.7 0.00 0.00 0.00 66 1014.2
20260503224554 15 211 4.8 9.7 0.00 0.00 0.00 66 1014.1
20260503224054 15 210 3.2 9.7 0.00 0.00 0.00 66 1014.1
20260503223554 15 224 3.2 9.7 0.00 0.00 0.00 66 1014.1
20260503223054 15 214 3.2 9.7 0.00 0.00 0.00 66 1014.1
20260503222552 15 216 4.8 9.7 0.00 0.00 0.00 65 1014.1
20260503222054 15 214 3.2 8.0 0.00 0.00 0.00 65 1014.1
20260503221552 15 217 3.2 8.0 0.00 0.00 0.00 65 1014.1
20260503221052 15 217 4.8 8.0 0.00 0.00 0.00 64 1014.0
20260503220551 15 243 3.2 6.4 0.00 0.00 0.00 65 1014.0
20260503220050 15 271 3.2 6.4 0.00 0.00 0.00 64 1014.0
20260503215550 15 272 1.6 4.8 0.00 0.00 0.00 65 1014.0
20260503215051 15 276 1.6 6.4 0.00 0.00 0.00 65 1013.9
20260503214549 15 283 3.2 6.4 0.00 0.00 0.00 65 1014.0
20260503214049 15 284 1.6 3.2 0.00 0.00 0.00 66 1013.8
20260503213549 15 284 0.0 3.2 0.00 0.00 0.00 67 1013.9
20260503213052 16 284 0.0 4.8 0.00 0.00 0.00 68 1014.0
20260503212549 16 284 1.6 4.8 0.00 0.00 0.00 69 1014.0
20260503212048 16 284 1.6 4.8 0.00 0.00 0.00 69 1014.1
20260503211549 16 284 1.6 3.2 0.00 0.00 0.00 69 1014.0
20260503211048 16 284 1.6 3.2 0.00 0.00 0.00 70 1013.9
20260503210548 16 284 1.6 3.2 0.00 0.00 0.00 70 1014.0
20260503210048 16 284 1.6 4.8 0.00 0.00 0.00 70 1014.0
20260503205548 16 284 1.6 4.8 0.00 0.00 0.00 70 1014.0
20260503205048 16 284 0.0 3.2 0.00 0.00 0.00 69 1014.1
20260503204548 16 284 0.0 3.2 0.00 0.00 0.00 69 1014.1
20260503204047 16 284 0.0 3.2 0.00 0.00 0.00 68 1014.0
20260503203548 16 284 0.0 3.2 0.00 0.00 0.00 66 1014.1
20260503203053 16 284 1.6 4.8 0.00 0.00 0.00 65 1014.0
20260503202548 16 284 1.6 3.2 0.00 0.00 0.00 64 1014.1
20260503202048 17 284 0.0 0.0 0.00 0.00 0.00 63 1014.0
20260503201547 17 284 0.0 0.0 0.00 0.00 0.00 62 1013.8
20260503201046 17 284 0.0 0.0 0.00 0.00 0.00 61 1014.0
20260503200546 17 284 0.0 1.6 0.00 0.00 0.00 61 1014.0
20260503200046 17 284 0.0 1.6 0.00 0.00 0.00 61 1014.0
20260503195546 17 284 0.0 0.0 0.00 0.00 0.00 60 1013.9
20260503195046 17 284 0.0 1.6 0.00 0.00 0.00 60 1013.9
20260503194546 17 284 0.0 3.2 0.00 0.00 0.00 59 1013.7
20260503194047 17 284 0.0 4.8 0.00 0.00 0.00 58 1013.6
20260503193546 18 284 0.0 4.8 0.00 0.00 0.00 58 1013.6
20260503193048 18 300 1.6 4.8 0.00 0.00 0.00 57 1013.5
20260503192545 18 319 1.6 3.2 0.00 0.00 0.00 57 1013.5
20260503192047 18 319 0.0 3.2 0.00 0.00 0.00 58 1013.3
20260503191545 18 319 0.0 4.8 0.00 0.00 0.00 58 1013.1
20260503191045 18 319 1.6 8.0 0.00 0.00 0.00 57 1013.0
20260503190548 18 319 1.6 8.0 0.00 0.00 0.00 55 1012.9
20260503190046 18 242 0.0 3.2 0.00 0.00 0.00 54 1012.8
20260503185544 18 242 0.0 3.2 0.00 0.00 0.00 53 1012.8
20260503185048 18 242 0.0 1.6 0.00 0.00 0.00 52 1012.7
20260503184552 18 242 0.0 1.6 0.00 0.00 0.00 52 1012.8
20260503184044 18 242 0.0 1.6 0.00 0.00 0.00 51 1012.7
20260503183546 18 242 0.0 3.2 0.00 0.00 0.00 50 1012.6
20260503183045 18 242 1.6 3.2 0.00 0.00 0.00 49 1012.6
20260503182547 18 242 0.0 1.6 0.00 0.00 0.00 50 1012.6
20260503182043 18 242 0.0 1.6 0.00 0.00 0.00 50 1012.5
20260503181543 18 242 0.0 1.6 0.00 0.00 0.00 51 1012.4
20260503181043 18 242 0.0 1.6 0.00 0.00 0.00 49 1012.5
20260503180546 18 242 0.0 1.6 0.00 0.00 0.00 52 1012.4
20260503180052 18 242 0.0 1.6 0.00 0.00 0.00 55 1012.3
20260503175542 18 242 0.0 3.2 0.00 0.00 0.00 57 1012.2
20260503175042 19 242 0.0 3.2 0.00 0.00 0.00 53 1012.2
20260503174545 20 242 0.0 4.8 0.00 0.00 0.00 47 1012.2
20260503174045 20 242 1.6 8.0 0.00 0.00 0.00 46 1012.3
20260503173543 20 242 1.6 8.0 0.00 0.00 0.00 43 1012.3
20260503173049 20 244 1.6 4.8 0.00 0.00 0.00 43 1012.3
20260503172542 21 244 3.2 6.4 0.00 0.00 0.00 42 1012.4
20260503172041 21 244 3.2 6.4 0.00 0.00 0.00 42 1012.3
20260503171542 21 244 3.2 8.0 0.00 0.00 0.00 41 1012.4
20260503171041 21 243 4.8 8.0 0.00 0.00 0.00 41 1012.4
20260503170541 21 244 3.2 8.0 0.00 0.00 0.00 41 1012.4
20260503150535 23 224 14.5 22.5 0.00 0.00 0.00 41 1012.7
20260503131026 22 188 9.7 24.1 0.00 0.00 0.00 39 1013.6
20260503130525 22 257 12.9 24.1 0.00 0.00 0.00 38 1013.6
20260503110512 20 180 4.8 8.0 0.00 0.00 0.00 54 1014.4
20260503081547 15 183 1.6 3.2 0.00 0.00 0.00 73 1015.3
20260503081051 15 183 1.6 3.2 0.00 0.00 0.00 71 1015.4
20260503080550 15 183 0.0 1.6 0.00 0.00 0.00 72 1015.3
20260503072547 15 181 4.8 9.7 0.00 0.00 0.00 72 1016.0
20260503072043 15 180 4.8 11.3 0.00 0.00 0.00 72 1016.0
20260503071549 15 181 6.4 11.3 0.00 0.00 0.00 73 1016.0
20260503071041 15 184 4.8 11.3 0.00 0.00 0.00 77 1016.0
20260503070542 14 196 3.2 11.3 0.00 0.00 0.00 76 1015.9
20260503060104 12 207 0.0 3.2 0.00 0.00 0.00 83 1015.2
20260503055032 11 207 0.0 3.2 0.00 0.00 0.00 84 1015.2
20260503054537 11 207 1.6 3.2 0.00 0.00 0.00 84 1015.0
20260503054030 11 207 0.0 1.6 0.00 0.00 0.00 84 1014.9
20260503053530 11 207 0.0 1.6 0.00 0.00 0.00 84 1014.9
20260503053033 11 207 0.0 1.6 0.00 0.00 0.00 85 1015.0
20260503052530 11 207 0.0 1.6 0.00 0.00 0.00 86 1015.0
20260503052032 11 207 0.0 1.6 0.00 0.00 0.00 87 1015.0
20260503051529 10 207 0.0 3.2 0.00 0.00 0.00 88 1015.1
20260503051032 10 207 0.0 3.2 0.00 0.00 0.00 88 1015.0
20260503050529 10 207 0.0 1.6 0.00 0.00 0.00 89 1014.9
20260503050033 9 207 0.0 1.6 0.00 0.00 0.00 89 1014.9
20260503045529 9 207 0.0 1.6 0.00 0.00 0.00 89 1014.9
20260503045028 8 207 0.0 1.6 0.00 0.00 0.00 90 1014.8
20260503044532 8 207 0.0 3.2 0.00 0.00 0.00 90 1014.8
20260503044029 8 207 0.0 3.2 0.00 0.00 0.00 90 1014.7